Home > Weather > Riyadh > Past weeks

Flag for Saudi Arabia Past Weather in Riyadh, Saudi Arabia — Yesterday and Last 2 Weeks

Now
88 °F

Clear.


Feels Like: 84 °F
Forecast: 89 / 114 °F
Wind: 6 mph from West

Location: King Khaled International Airport

Current Time: Jun 29, 2016 at 5:05:33 AM

Latest Report: Jun 29, 2016 at 4:00 AM


Visibility: 10 mi

Pressure: 29.71 "Hg (27.80 "Hg at 590m altitude)

Humidity: 12%

Dew Point: 28 °F

Location of RiyadhLocation

Past Weather in Riyadh — Graph

°F

Riyadh Temperature Yesterday

Maximum temperature yesterday: 113 °F (at 2:00 PM)
Minimum temperature yesterday: 82 °F (at 5:00 AM)
Average temperature yesterday: 99 °F

High & Low Weather Summary for the Past Weeks

 TemperatureHumidityPressure
High113 °F (Jun 28, 2:00 PM)17% (Jun 18, 6:00 AM)29.95 "Hg (Jun 18, 6:00 AM)
Low77 °F (Jun 14, 4:00 AM)4% (Jun 14, 6:00 PM)29.62 "Hg (Jun 24, 4:00 PM)
Average96 °F9%29.74 "Hg
* Reported Jun 14 4:00 AM — Jun 29 4:00 AM, Riyadh, Weather by CustomWeather, © 2016

Note: Actual official high and low records may vary slightly from our data, if they occured in-between our weather recording intervals... More about our weather records

Advertising

Riyadh Weather History for the Previous 24 Hours

Scroll right to see more
 ConditionsComfort  
Time TempWeatherWind HumidityBarometerVisibility
4:00 AM
Wed, Jun 29
88 °FClear.6 mph12%29.71 "Hg10 mi
3:00 AM88 °FClear.5 mph11%29.68 "Hg10 mi
2:00 AM91 °FClear.3 mph10%29.68 "Hg10 mi
1:00 AM95 °FClear.2 mph10%29.68 "Hg10 mi
12:00 AM93 °FClear.No wind10%29.71 "Hg10 mi
11:00 PM
Tue, Jun 28
95 °FClear.5 mph9%29.71 "Hg10 mi
10:00 PM97 °FClear.6 mph9%29.71 "Hg10 mi
9:00 PM99 °FClear.5 mph8%29.68 "Hg10 mi
8:00 PM102 °FClear.5 mph8%29.68 "Hg10 mi
7:00 PM104 °FClear.5 mph7%29.65 "Hg10 mi
6:00 PM108 °FSunny.6 mph7%29.65 "Hg10 mi
5:00 PM111 °FSunny.2 mph6%29.62 "Hg10 mi
4:00 PM113 °FSunny.7 mph5%29.62 "Hg10 mi
3:00 PM109 °FSunny.13 mph6%29.65 "Hg10 mi
2:00 PM113 °FSunny.6 mph5%29.65 "Hg10 mi
1:00 PM109 °FSunny.5 mph6%29.68 "Hg10 mi
12:00 PM109 °FSunny.3 mph6%29.68 "Hg10 mi
11:00 AM109 °FSunny.5 mph6%29.71 "Hg10 mi
10:00 AM106 °FSunny.9 mph8%29.71 "Hg10 mi
9:00 AM102 °FClear.8 mph7%29.71 "Hg6 mi
8:00 AM95 °FClear.2 mph10%29.71 "Hg5 mi
7:00 AM88 °FClear.2 mph13%29.71 "Hg5 mi
6:00 AM82 °FClear.3 mph13%29.71 "Hg5 mi
5:00 AM82 °FClear.5 mph13%29.68 "Hg5 mi
Weather by CustomWeather, © 2016

See weather overviewHow to use our weather pages